Location: Aalen
(48.8330°N, 10.1000°E)
Time: 09:46:35
(UTC+02:00)

Transit 2A - Pass Details

Date: 01 August 2021
Orbit: 594 x 964 km, 66.7° (Epoch: 24 September)

Event Time Altitude Azimuth Distance (km) Brightness Sun altitude
Rises 14:11:19 0° 327° (NNW) 3,140 9.0 57.7°
Reaches altitude 10° 14:14:00 10° 341° (NNW) 2,281 8.3 57.6°
Maximum altitude 14:18:17 25° 36° (NE) 1,588 7.6 57.3°
Drops below altitude 10° 14:22:54 10° 90° (E) 2,479 8.6 57.0°
Sets 14:25:57 0° 103° (ESE) 3,477 9.3 56.7°
